sat.trackr.live / text

‹ back to catalog

ONEWEB-0358

NORAD 49284 · 2021-090F

PAYLOAD ACTIVE UNKNOWN

§ Identity

Operator
Country
UK
Launch date
2021-10-14
Launch site
VOSTO
Launch vehicle
Mass (kg)
RCS (m²)

Purposes: comms

External: N2YO · Heavens-Above · Gunter

§ Orbital elements

Epoch: 2026-05-24T22:08:36.027744Z

Period
109.03 min
Inclination
87.9177°
Eccentricity
0.0002051
Mean motion
13.20769257 rev/d
Perigee alt
1,180.2 km
Apogee alt
1,183.3 km
Semi-major
7,559.9 km
B*
-1.5246e-4
RAAN
279.0763°
Arg perigee
101.9246°
Mean anomaly
258.2117°
Rev number
22,748

§ Raw data

ONEWEB-03581 49284U 21090F   26144.92263921 -.00000049  00000+0 -15246-3 0  99952 49284  87.9177 279.0763 0002051 101.9246 258.2117 13.20769257227484

JSON: /api/v1/satellites/49284 · /tle

For live sub-satellite position, see the globe view (requires WebGL).

§ Visibility from observer

Set your observer location to see the next 7 days of passes ≥ 10°. The values pass through the URL so the page stays shareable.

No JS? Fill the form by hand. The geolocation button needs JavaScript.